• în România
  • Lista ţărilor
  • Pe 7 zile
  • Temperatura apei
  • Hartă satelitară
  • Meteo pe hartă
  • Widget-uri
  • user-avatar
    Intrare

    Meteo pe oră la Zhdankovskiy

    Astăzi, 17 Iulie, Marţi

    Timp Temperatura Precipitaţii Vânt Presiune Umiditate
    00:00 +20°C° 0,2 mm 3 m/s 732 mmHg 90%
    01:00 +20°C° 0 mm 3 m/s 731 mmHg 91%
    02:00 +20°C° 0 mm 3 m/s 731 mmHg 93%
    03:00 +19°C° 0 mm 3 m/s 731 mmHg 96%
    04:00 +20°C° 1 mm 4 m/s 731 mmHg 96%
    05:00 +20°C° 1 mm 4 m/s 731 mmHg 96%
    06:00 +20°C° 1 mm 5 m/s 731 mmHg 96%
    07:00 +21°C° 0,2 mm 5 m/s 730 mmHg 93%
    08:00 +23°C° 0,2 mm 6 m/s 730 mmHg 90%
    09:00 +24°C° 0 mm 6 m/s 730 mmHg 85%
    10:00 +26°C° 0,8 mm 7 m/s 730 mmHg 82%
    11:00 +26°C° 0,8 mm 7 m/s 730 mmHg 79%
    12:00 +27°C° 0,8 mm 7 m/s 730 mmHg 76%
    13:00 +27°C° 0,9 mm 6 m/s 730 mmHg 77%
    14:00 +26°C° 0,9 mm 6 m/s 730 mmHg 78%
    15:00 +26°C° 0,9 mm 6 m/s 730 mmHg 78%
    16:00 +26°C° 0,5 mm 5 m/s 730 mmHg 80%
    17:00 +26°C° 0,5 mm 4 m/s 730 mmHg 82%
    18:00 +25°C° 0,5 mm 3 m/s 730 mmHg 83%
    19:00 +24°C° 0,2 mm 3 m/s 729 mmHg 87%
    20:00 +22°C° 0,2 mm 3 m/s 729 mmHg 90%
    21:00 +21°C° 0,2 mm 3 m/s 729 mmHg 94%
    22:00 +20°C° 0,3 mm 3 m/s 729 mmHg 94%
    23:00 +20°C° 0,3 mm 3 m/s 729 mmHg 95%

    Mâine, 18 Iulie, Miercuri

    Timp Temperatura Precipitaţii Vânt Presiune Umiditate
    00:00 +20°C° 0,3 mm 3 m/s 729 mmHg 96%
    01:00 +19°C° 0 mm 4 m/s 728 mmHg 96%
    02:00 +19°C° 0 mm 4 m/s 728 mmHg 97%
    03:00 +19°C° 0 mm 4 m/s 728 mmHg 97%
    04:00 +19°C° 0 mm 5 m/s 728 mmHg 96%
    05:00 +19°C° 0 mm 5 m/s 728 mmHg 96%
    06:00 +19°C° 0 mm 6 m/s 728 mmHg 95%
    07:00 +20°C° 0,2 mm 6 m/s 727 mmHg 95%
    08:00 +20°C° 0,2 mm 6 m/s 727 mmHg 94%
    09:00 +20°C° 0,2 mm 6 m/s 727 mmHg 94%
    10:00 +20°C° 0,2 mm 6 m/s 727 mmHg 93%
    11:00 +21°C° 0,2 mm 6 m/s 727 mmHg 91%
    12:00 +21°C° 0,2 mm 6 m/s 727 mmHg 90%
    13:00 +21°C° 0,4 mm 6 m/s 727 mmHg 89%
    14:00 +22°C° 0,4 mm 6 m/s 726 mmHg 88%
    15:00 +22°C° 0,4 mm 6 m/s 726 mmHg 86%
    16:00 +22°C° 0,3 mm 6 m/s 726 mmHg 86%
    17:00 +22°C° 0,3 mm 6 m/s 726 mmHg 86%
    18:00 +22°C° 0,3 mm 5 m/s 726 mmHg 86%
    19:00 +21°C° 0,1 mm 5 m/s 726 mmHg 88%
    20:00 +20°C° 0,1 mm 4 m/s 726 mmHg 91%
    21:00 +19°C° 0,1 mm 4 m/s 726 mmHg 94%
    22:00 +19°C° 0 mm 4 m/s 726 mmHg 95%
    23:00 +19°C° 0 mm 3 m/s 726 mmHg 96%

    Poimâine, 19 Iulie, Joi

    Timp Temperatura Precipitaţii Vânt Presiune Umiditate
    00:00 +18°C° 0 mm 3 m/s 726 mmHg 97%
    01:00 +19°C° 0,2 mm 3 m/s 726 mmHg 97%
    02:00 +19°C° 0,2 mm 3 m/s 726 mmHg 98%
    03:00 +19°C° 0,2 mm 2 m/s 726 mmHg 98%
    04:00 +19°C° 0,3 mm 2 m/s 726 mmHg 98%
    05:00 +19°C° 0,3 mm 2 m/s 726 mmHg 97%
    06:00 +19°C° 0,3 mm 2 m/s 726 mmHg 97%
    07:00 +19°C° 0,3 mm 2 m/s 726 mmHg 96%
    08:00 +20°C° 0,3 mm 3 m/s 727 mmHg 94%
    09:00 +21°C° 0,3 mm 3 m/s 727 mmHg 92%
    10:00 +21°C° 1,7 mm 3 m/s 727 mmHg 89%
    11:00 +22°C° 1,7 mm 4 m/s 727 mmHg 87%
    12:00 +23°C° 1,7 mm 4 m/s 728 mmHg 84%
    13:00 +23°C° 2 mm 4 m/s 728 mmHg 84%
    14:00 +25°C° 2 mm 4 m/s 728 mmHg 83%
    15:00 +25°C° 2 mm 4 m/s 728 mmHg 82%
    16:00 +25°C° 0,9 mm 4 m/s 728 mmHg 83%
    17:00 +25°C° 0,9 mm 4 m/s 728 mmHg 85%
    18:00 +25°C° 0,9 mm 4 m/s 728 mmHg 86%
    19:00 +24°C° 0,5 mm 3 m/s 728 mmHg 89%
    20:00 +22°C° 0,5 mm 3 m/s 729 mmHg 91%
    21:00 +21°C° 0,5 mm 3 m/s 729 mmHg 94%
    22:00 +20°C° 0,1 mm 3 m/s 729 mmHg 95%
    23:00 +20°C° 0,1 mm 3 m/s 729 mmHg 96%

    20 Iulie, Vineri

    Timp Temperatura Precipitaţii Vânt Presiune Umiditate
    00:00 +20°C° 0,1 mm 2 m/s 729 mmHg 96%
    01:00 +19°C° 0 mm 2 m/s 729 mmHg 96%
    02:00 +19°C° 0 mm 2 m/s 730 mmHg 97%
    03:00 +19°C° 0 mm 2 m/s 730 mmHg 97%
    04:00 +19°C° 0 mm 2 m/s 730 mmHg 97%
    05:00 +19°C° 0 mm 2 m/s 730 mmHg 97%
    06:00 +19°C° 0 mm 2 m/s 730 mmHg 97%
    07:00 +21°C° 0 mm 2 m/s 730 mmHg 93%
    08:00 +22°C° 0 mm 3 m/s 731 mmHg 90%
    09:00 +24°C° 0 mm 3 m/s 731 mmHg 87%
    10:00 +25°C° 0,5 mm 3 m/s 731 mmHg 83%
    11:00 +26°C° 0,5 mm 3 m/s 731 mmHg 79%
    12:00 +27°C° 0,5 mm 3 m/s 731 mmHg 75%
    13:00 +27°C° 1,2 mm 4 m/s 731 mmHg 74%
    14:00 +28°C° 1,2 mm 4 m/s 731 mmHg 74%
    15:00 +28°C° 1,2 mm 4 m/s 730 mmHg 73%
    16:00 +27°C° 1,3 mm 4 m/s 730 mmHg 76%
    17:00 +27°C° 1,3 mm 3 m/s 730 mmHg 79%
    18:00 +27°C° 1,3 mm 3 m/s 731 mmHg 82%
    19:00 +25°C° 0,1 mm 3 m/s 730 mmHg 85%
    20:00 +24°C° 0,1 mm 3 m/s 730 mmHg 88%
    21:00 +22°C° 0,1 mm 3 m/s 730 mmHg 91%
    22:00 +21°C° 0 mm 3 m/s 731 mmHg 92%
    23:00 +21°C° 0 mm 3 m/s 731 mmHg 93%

    21 Iulie, Sâmbătă

    Timp Temperatura Precipitaţii Vânt Presiune Umiditate
    00:00 +20°C° 0 mm 3 m/s 731 mmHg 94%
    01:00 +20°C° 0 mm 3 m/s 731 mmHg 95%
    02:00 +20°C° 0 mm 2 m/s 731 mmHg 95%
    03:00 +19°C° 0 mm 2 m/s 731 mmHg 95%
    04:00 +19°C° 0 mm 2 m/s 731 mmHg 95%
    05:00 +19°C° 0 mm 2 m/s 731 mmHg 94%
    06:00 +20°C° 0 mm 2 m/s 731 mmHg 94%
    07:00 +21°C° 0 mm 2 m/s 732 mmHg 90%
    08:00 +22°C° 0 mm 3 m/s 732 mmHg 86%
    09:00 +25°C° 0 mm 3 m/s 732 mmHg 81%
    10:00 +26°C° 0,1 mm 3 m/s 732 mmHg 77%
    11:00 +27°C° 0,1 mm 4 m/s 732 mmHg 73%
    12:00 +27°C° 0,1 mm 4 m/s 732 mmHg 70%
    13:00 +28°C° 0,4 mm 4 m/s 732 mmHg 69%
    14:00 +28°C° 0,4 mm 4 m/s 732 mmHg 68%
    15:00 +28°C° 0,4 mm 4 m/s 732 mmHg 68%
    16:00 +28°C° 0,3 mm 4 m/s 732 mmHg 71%
    17:00 +28°C° 0,3 mm 3 m/s 732 mmHg 74%
    18:00 +27°C° 0,3 mm 3 m/s 732 mmHg 77%
    19:00 +26°C° 0,2 mm 3 m/s 732 mmHg 80%
    20:00 +24°C° 0,2 mm 3 m/s 732 mmHg 84%
    21:00 +22°C° 0,2 mm 3 m/s 732 mmHg 87%
    22:00 +21°C° 0 mm 3 m/s 732 mmHg 89%
    23:00 +21°C° 0 mm 3 m/s 732 mmHg 90%

    22 Iulie, Duminică

    Timp Temperatura Precipitaţii Vânt Presiune Umiditate
    00:00 +20°C° 0 mm 3 m/s 731 mmHg 92%
    01:00 +20°C° 0 mm 3 m/s 731 mmHg 92%
    02:00 +20°C° 0 mm 3 m/s 731 mmHg 93%
    03:00 +19°C° 0 mm 3 m/s 731 mmHg 93%
    04:00 +20°C° 0,1 mm 3 m/s 731 mmHg 93%
    05:00 +20°C° 0,1 mm 3 m/s 731 mmHg 92%
    06:00 +20°C° 0,1 mm 3 m/s 731 mmHg 92%
    07:00 +22°C° 0,2 mm 3 m/s 731 mmHg 88%
    08:00 +24°C° 0,2 mm 3 m/s 731 mmHg 84%
    09:00 +25°C° 0,2 mm 3 m/s 731 mmHg 80%
    10:00 +27°C° 0,6 mm 4 m/s 731 mmHg 75%
    11:00 +28°C° 0,6 mm 4 m/s 731 mmHg 70%
    12:00 +29°C° 0,6 mm 4 m/s 731 mmHg 65%
    13:00 +29°C° 0,8 mm 4 m/s 731 mmHg 66%
    14:00 +29°C° 0,8 mm 4 m/s 731 mmHg 67%
    15:00 +29°C° 0,8 mm 5 m/s 730 mmHg 68%
    16:00 +29°C° 0,3 mm 4 m/s 730 mmHg 71%
    17:00 +28°C° 0,3 mm 4 m/s 730 mmHg 74%
    18:00 +28°C° 0,3 mm 3 m/s 730 mmHg 78%
    19:00 +27°C° 0,2 mm 3 m/s 730 mmHg 81%
    20:00 +25°C° 0,2 mm 3 m/s 730 mmHg 84%
    21:00 +24°C° 0,2 mm 2 m/s 730 mmHg 87%
    22:00 +23°C° 0 mm 2 m/s 730 mmHg 89%
    23:00 +23°C° 0 mm 2 m/s 730 mmHg 91%
    Arată mai mult